BAW437Z EHAM-EGLL

Flight info

Callsign BAW437Z
Flight time N/A
Altitude 24000
Route IDRID L980 LOGAN
Aircraft A320/M-SDE3FGHIRWY/LB1

Departure

Time 2026-04-28 00:09
Airport Amsterdam Airport Schiphol (EHAM)

Arrival

Time N/A
Airport London Heathrow Airport (EGLL)
Time Latitude Longitude Altitude Speed Heading
2026-04-27 23:50 52.30716 4.77089 4 ft 0 kts
2026-04-27 23:59 52.30713 4.77089 4 ft 3 kts
2026-04-27 23:59 52.30689 4.77084 4 ft 2 kts 20°
2026-04-28 00:00 52.30674 4.77075 4 ft 4 kts 322°
2026-04-28 00:00 52.30661 4.77103 6 ft 3 kts 302°
2026-04-28 00:00 52.30659 4.77107 7 ft 0 kts 303°
2026-04-28 00:03 52.30661 4.77088 6 ft 4 kts 271°
2026-04-28 00:03 52.30621 4.77041 6 ft 11 kts 187°
2026-04-28 00:03 52.30533 4.77111 8 ft 17 kts 151°
2026-04-28 00:03 52.30473 4.77239 11 ft 13 kts 77°
2026-04-28 00:04 52.30533 4.77399 12 ft 18 kts 56°
2026-04-28 00:04 52.30735 4.77595 13 ft 20 kts
2026-04-28 00:04 52.30891 4.77610 12 ft 24 kts
2026-04-28 00:05 52.31064 4.77627 13 ft 25 kts
2026-04-28 00:05 52.31246 4.77643 13 ft 27 kts
2026-04-28 00:05 52.31420 4.77651 15 ft 21 kts 352°
2026-04-28 00:05 52.31512 4.77572 12 ft 24 kts 317°
2026-04-28 00:06 52.31576 4.77257 9 ft 25 kts 265°
2026-04-28 00:06 52.31566 4.76962 11 ft 26 kts 269°
2026-04-28 00:06 52.31559 4.76657 13 ft 27 kts 266°
2026-04-28 00:06 52.31547 4.76415 18 ft 21 kts 266°
2026-04-28 00:07 52.31538 4.76157 17 ft 24 kts 267°
2026-04-28 00:07 52.31528 4.75870 16 ft 27 kts 266°
2026-04-28 00:07 52.31517 4.75534 12 ft 31 kts 267°
2026-04-28 00:07 52.31507 4.75174 10 ft 31 kts 267°
2026-04-28 00:08 52.31496 4.74840 14 ft 24 kts 266°
2026-04-28 00:08 52.31517 4.74673 16 ft 12 kts 331°
2026-04-28 00:08 52.31604 4.74658 19 ft 13 kts 360°
2026-04-28 00:08 52.31669 4.74746 19 ft 15 kts 83°
2026-04-28 00:09 52.31683 4.75174 15 ft 70 kts 86°
2026-04-28 00:09 52.31725 4.76297 19 ft 125 kts 86°
2026-04-28 00:09 52.31778 4.77905 278 ft 146 kts 87°
2026-04-28 00:09 52.31935 4.79527 937 ft 145 kts 62°
2026-04-28 00:10 52.32649 4.80734 1391 ft 162 kts 29°
2026-04-28 00:10 52.33844 4.80929 1739 ft 190 kts 352°
2026-04-28 00:10 52.35181 4.80358 2110 ft 207 kts 351°
2026-04-28 00:10 52.36639 4.79758 2590 ft 221 kts 349°
2026-04-28 00:11 52.38141 4.79110 3399 ft 227 kts 343°
2026-04-28 00:11 52.39072 4.78307 3969 ft 234 kts 327°
2026-04-28 00:11 52.40763 4.75693 4636 ft 265 kts 317°
2026-04-28 00:11 52.41625 4.74281 5265 ft 265 kts 318°
2026-04-28 00:12 52.42928 4.72146 6252 ft 266 kts 318°
2026-04-28 00:12 52.44250 4.69987 7086 ft 272 kts 316°
2026-04-28 00:12 52.45499 4.67622 7889 ft 278 kts 303°
2026-04-28 00:12 52.46333 4.64740 8819 ft 283 kts 287°
2026-04-28 00:13 52.46658 4.61536 9933 ft 288 kts 271°
2026-04-28 00:13 52.46602 4.58226 10935 ft 293 kts 260°
2026-04-28 00:13 52.46037 4.54966 11707 ft 308 kts 244°
2026-04-28 00:13 52.44812 4.51929 12204 ft 332 kts 226°
2026-04-28 00:14 52.42944 4.49513 12650 ft 355 kts 211°
2026-04-28 00:14 52.40901 4.47090 13005 ft 381 kts 224°
2026-04-28 00:14 52.39271 4.43434 13417 ft 402 kts 240°
2026-04-28 00:14 52.38122 4.39295 14462 ft 401 kts 248°
2026-04-28 00:15 52.37176 4.35103 16117 ft 385 kts 249°
2026-04-28 00:15 52.36246 4.31108 17823 ft 367 kts 246°
2026-04-28 00:15 52.35260 4.27371 19434 ft 349 kts 243°
2026-04-28 00:15 52.34229 4.23905 20962 ft 329 kts 241°
2026-04-28 00:16 52.33194 4.20697 22496 ft 309 kts 239°
2026-04-28 00:16 52.32171 4.17644 23568 ft 307 kts 238°
2026-04-28 00:16 52.31008 4.14655 23976 ft 319 kts 231°
2026-04-28 00:16 52.29594 4.11772 24191 ft 331 kts 230°
2026-04-28 00:17 52.28112 4.08736 24259 ft 353 kts 230°
2026-04-28 00:17 52.26547 4.05480 24281 ft 376 kts 230°
2026-04-28 00:17 52.24899 4.02020 24279 ft 395 kts 231°
2026-04-28 00:17 52.23185 3.98410 24277 ft 410 kts 231°
2026-04-28 00:18 52.21405 3.94677 24270 ft 422 kts 231°
2026-04-28 00:18 52.19623 3.90950 24271 ft 424 kts 230°
2026-04-28 00:18 52.17803 3.87150 24266 ft 426 kts 230°
2026-04-28 00:18 52.15981 3.83354 24268 ft 426 kts 230°
2026-04-28 00:19 52.14149 3.79556 24269 ft 425 kts 230°
2026-04-28 00:19 52.12318 3.75774 24267 ft 426 kts 230°
2026-04-28 00:19 52.10481 3.71989 24258 ft 426 kts 230°
2026-04-28 00:19 52.08645 3.68205 24259 ft 426 kts 230°
2026-04-28 00:20 52.06812 3.64424 24256 ft 426 kts 230°
2026-04-28 00:20 52.04977 3.60641 24256 ft 426 kts 230°
2026-04-28 00:20 52.03138 3.56853 24255 ft 426 kts 230°
2026-04-28 00:20 52.01297 3.53072 24258 ft 426 kts 230°
2026-04-28 00:21 51.99460 3.49300 24248 ft 426 kts 230°
2026-04-28 00:21 51.97655 3.45481 24255 ft 426 kts 232°
2026-04-28 00:21 51.95897 3.41617 24282 ft 425 kts 233°
2026-04-28 00:21 51.94170 3.37737 24266 ft 424 kts 233°
2026-04-28 00:22 51.92493 3.33949 24240 ft 403 kts 233°
2026-04-28 00:22 51.90890 3.30339 24247 ft 386 kts 233°
2026-04-28 00:22 51.89340 3.26889 24245 ft 373 kts 232°
2026-04-28 00:22 51.87784 3.23446 24246 ft 383 kts 233°
2026-04-28 00:23 51.86384 3.19868 24243 ft 369 kts 239°
2026-04-28 00:23 51.85306 3.16190 24242 ft 357 kts 248°
2026-04-28 00:23 51.84643 3.12263 24246 ft 372 kts 259°
2026-04-28 00:23 51.84321 3.08192 24251 ft 360 kts 262°
2026-04-28 00:24 51.84074 3.04166 24253 ft 361 kts 262°
2026-04-28 00:24 51.83848 3.00102 24251 ft 365 kts 263°
2026-04-28 00:24 51.83618 2.95997 24253 ft 369 kts 263°
2026-04-28 00:24 51.83374 2.91853 24252 ft 372 kts 262°
2026-04-28 00:25 51.83112 2.87667 24270 ft 376 kts 263°
2026-04-28 00:25 51.82836 2.83444 24265 ft 379 kts 263°
2026-04-28 00:25 51.82550 2.79196 24264 ft 382 kts 263°
2026-04-28 00:25 51.82255 2.74913 24263 ft 385 kts 263°
2026-04-28 00:26 51.81957 2.70609 24271 ft 388 kts 262°
2026-04-28 00:26 51.81658 2.66266 24270 ft 390 kts 262°
2026-04-28 00:26 51.81357 2.61886 24270 ft 393 kts 263°
2026-04-28 00:26 51.81056 2.57473 24039 ft 401 kts 263°
2026-04-28 00:27 51.80740 2.52897 23437 ft 419 kts 263°
2026-04-28 00:27 51.80406 2.48124 22719 ft 436 kts 263°
2026-04-28 00:27 51.80059 2.43200 22331 ft 445 kts 263°
2026-04-28 00:27 51.79707 2.38218 22146 ft 449 kts 263°
2026-04-28 00:28 51.79351 2.33190 21954 ft 452 kts 263°
2026-04-28 00:28 51.78989 2.28114 21762 ft 456 kts 263°
2026-04-28 00:28 51.78623 2.23037 21555 ft 451 kts 263°
2026-04-28 00:28 51.78260 2.18095 21105 ft 437 kts 263°
2026-04-28 00:29 51.77925 2.13255 20316 ft 432 kts 264°
2026-04-28 00:29 51.77622 2.08531 19550 ft 426 kts 264°
2026-04-28 00:29 51.77337 2.03784 18784 ft 422 kts 264°
2026-04-28 00:29 51.77071 1.99134 18401 ft 409 kts 265°
2026-04-28 00:30 51.76817 1.94648 18230 ft 391 kts 265°
2026-04-28 00:30 51.76565 1.90274 17144 ft 396 kts 265°
2026-04-28 00:30 51.76299 1.85781 15906 ft 407 kts 266°
2026-04-28 00:30 51.76022 1.81225 14959 ft 407 kts 266°
2026-04-28 00:31 51.75747 1.76751 14491 ft 392 kts 266°
2026-04-28 00:31 51.75495 1.72532 14322 ft 360 kts 266°
2026-04-28 00:31 51.75277 1.68730 14273 ft 322 kts 266°